• In Hungary
  • List of Countries
  • For 7 days
  • Water Temperature
  • Satellite Maps
  • Weather Map
  • News
  • Weather Widgets
  • user-avatar
    Login

    Hourly Weather Krasyukovskaya

    Today, 18 December, Monday

    Time Temperature Precipitation Wind Pressure Humidity
    00:00 +4°C° 0.1 mm 6 mps 762 mmHg 83%
    01:00 +4°C° 0.2 mm 6 mps 762 mmHg 84%
    02:00 +4°C° 0.2 mm 6 mps 762 mmHg 84%
    03:00 +4°C° 0 mm 6 mps 761 mmHg 84%
    04:00 +4°C° 0.2 mm 6 mps 761 mmHg 85%
    05:00 +4°C° 0.2 mm 6 mps 761 mmHg 85%
    06:00 +4°C° 0.2 mm 6 mps 761 mmHg 86%
    07:00 +4°C° 0.1 mm 7 mps 760 mmHg 87%
    08:00 +4°C° 0.1 mm 7 mps 760 mmHg 87%
    09:00 +5°C° 0 mm 7 mps 760 mmHg 88%
    10:00 +5°C° 0.1 mm 7 mps 760 mmHg 86%
    11:00 +6°C° 0.1 mm 7 mps 760 mmHg 84%
    12:00 +6°C° 0.1 mm 7 mps 760 mmHg 82%
    13:00 +8°C° 0.1 mm 7 mps 760 mmHg 80%
    14:00 +8°C° 0.1 mm 7 mps 760 mmHg 78%
    15:00 +8°C° 0 mm 7 mps 760 mmHg 75%
    16:00 +8°C° 0.1 mm 6 mps 760 mmHg 76%
    17:00 +8°C° 0.1 mm 6 mps 760 mmHg 77%
    18:00 +8°C° 0.1 mm 6 mps 761 mmHg 78%
    19:00 +8°C° 0.2 mm 5 mps 761 mmHg 82%
    20:00 +8°C° 0.2 mm 5 mps 761 mmHg 85%
    21:00 +7°C° 0.2 mm 4 mps 761 mmHg 89%
    22:00 +8°C° 0.3 mm 3 mps 761 mmHg 89%
    23:00 +8°C° 0.3 mm 3 mps 762 mmHg 89%

    Tomorrow, 19 December, Tuesday

    Time Temperature Precipitation Wind Pressure Humidity
    00:00 +7°C° 0.3 mm 2 mps 762 mmHg 89%
    01:00 +7°C° 0.5 mm 2 mps 762 mmHg 90%
    02:00 +7°C° 0.5 mm 2 mps 762 mmHg 90%
    03:00 +8°C° 0.5 mm 1 mps 762 mmHg 90%
    04:00 +7°C° 1.1 mm 1 mps 762 mmHg 91%
    05:00 +7°C° 1.1 mm 1 mps 762 mmHg 92%
    06:00 +7°C° 1.1 mm 1 mps 762 mmHg 92%
    07:00 +7°C° 1.1 mm 1 mps 762 mmHg 92%
    08:00 +6°C° 1.1 mm 2 mps 763 mmHg 91%
    09:00 +5°C° 1.1 mm 2 mps 763 mmHg 91%
    10:00 +6°C° 0.5 mm 2 mps 763 mmHg 88%
    11:00 +6°C° 0.5 mm 2 mps 763 mmHg 85%
    12:00 +6°C° 0.5 mm 2 mps 764 mmHg 82%
    13:00 +6°C° 0 mm 2 mps 764 mmHg 78%
    14:00 +6°C° 0 mm 2 mps 764 mmHg 75%
    15:00 +5°C° 0 mm 3 mps 764 mmHg 71%
    16:00 +5°C° 0 mm 2 mps 764 mmHg 73%
    17:00 +5°C° 0 mm 2 mps 765 mmHg 75%
    18:00 +4°C° 0 mm 2 mps 765 mmHg 77%
    19:00 +3°C° 0 mm 2 mps 765 mmHg 78%
    20:00 +3°C° 0 mm 2 mps 766 mmHg 78%
    21:00 +3°C° 0 mm 2 mps 766 mmHg 79%
    22:00 +3°C° 0 mm 1 mps 766 mmHg 79%
    23:00 +3°C° 0 mm 1 mps 766 mmHg 79%

    Day after tomorrow, 20 December, Wednesday

    Time Temperature Precipitation Wind Pressure Humidity
    00:00 +3°C° 0 mm 1 mps 767 mmHg 79%
    01:00 +3°C° 0 mm 1 mps 767 mmHg 78%
    02:00 +3°C° 0 mm 0 mps 767 mmHg 77%
    03:00 +3°C° 0 mm 0 mps 768 mmHg 76%
    04:00 +3°C° 0 mm 0 mps 768 mmHg 77%
    05:00 +3°C° 0 mm 0 mps 768 mmHg 77%
    06:00 +3°C° 0 mm 1 mps 768 mmHg 78%
    07:00 +4°C° 0 mm 1 mps 768 mmHg 77%
    08:00 +4°C° 0 mm 1 mps 768 mmHg 77%
    09:00 +4°C° 0 mm 1 mps 769 mmHg 76%
    10:00 +5°C° 0.1 mm 1 mps 769 mmHg 74%
    11:00 +5°C° 0.1 mm 1 mps 769 mmHg 71%
    12:00 +6°C° 0.1 mm 1 mps 769 mmHg 69%
    13:00 +6°C° 0.5 mm 1 mps 769 mmHg 72%
    14:00 +5°C° 0.5 mm 2 mps 769 mmHg 75%
    15:00 +5°C° 0.5 mm 2 mps 769 mmHg 78%
    16:00 +5°C° 0.5 mm 2 mps 769 mmHg 82%
    17:00 +4°C° 0.5 mm 2 mps 769 mmHg 85%
    18:00 +4°C° 0.5 mm 2 mps 769 mmHg 89%
    19:00 +4°C° 0.5 mm 2 mps 769 mmHg 91%
    20:00 +4°C° 0.5 mm 2 mps 769 mmHg 92%
    21:00 +5°C° 0.5 mm 1 mps 769 mmHg 94%
    22:00 +5°C° 0.7 mm 1 mps 769 mmHg 94%
    23:00 +4°C° 0.7 mm 2 mps 769 mmHg 95%

    21 December, Thursday

    Time Temperature Precipitation Wind Pressure Humidity
    00:00 +4°C° 0.7 mm 2 mps 770 mmHg 95%
    01:00 +4°C° 0.4 mm 2 mps 770 mmHg 94%
    02:00 +4°C° 0.4 mm 2 mps 770 mmHg 93%
    03:00 +3°C° 0.4 mm 3 mps 770 mmHg 93%
    04:00 +3°C° 0 mm 2 mps 770 mmHg 92%
    05:00 +2°C° 0 mm 2 mps 771 mmHg 92%
    06:00 +2°C° 0 mm 2 mps 771 mmHg 92%
    07:00 +2°C° 0 mm 2 mps 771 mmHg 92%
    08:00 +1°C° 0 mm 2 mps 772 mmHg 91%
    09:00 +1°C° 0 mm 2 mps 772 mmHg 91%
    10:00 +2°C° 0 mm 2 mps 772 mmHg 87%
    11:00 +3°C° 0 mm 2 mps 772 mmHg 82%
    12:00 +3°C° 0 mm 2 mps 772 mmHg 78%
    13:00 +4°C° 0 mm 2 mps 772 mmHg 77%
    14:00 +4°C° 0 mm 2 mps 772 mmHg 76%
    15:00 +4°C° 0 mm 2 mps 771 mmHg 74%
    16:00 +4°C° 0 mm 1 mps 771 mmHg 76%
    17:00 +4°C° 0 mm 1 mps 771 mmHg 78%
    18:00 +3°C° 0 mm 1 mps 771 mmHg 80%
    19:00 +3°C° 0 mm 1 mps 771 mmHg 80%
    20:00 +3°C° 0 mm 1 mps 771 mmHg 80%
    21:00 +3°C° 0 mm 1 mps 771 mmHg 80%
    22:00 +2°C° 0 mm 1 mps 770 mmHg 81%
    23:00 +2°C° 0 mm 1 mps 770 mmHg 82%

    22 December, Friday

    Time Temperature Precipitation Wind Pressure Humidity
    00:00 +2°C° 0 mm 1 mps 769 mmHg 82%
    01:00 +2°C° 0 mm 1 mps 769 mmHg 83%
    02:00 +1°C° 0 mm 1 mps 769 mmHg 83%
    03:00 +1°C° 0 mm 1 mps 768 mmHg 83%
    04:00 +1°C° 0 mm 1 mps 768 mmHg 84%
    05:00 +1°C° 0 mm 1 mps 767 mmHg 84%
    06:00 +1°C° 0 mm 1 mps 766 mmHg 84%
    07:00 +1°C° 0 mm 1 mps 766 mmHg 84%
    08:00 +1°C° 0 mm 1 mps 766 mmHg 83%
    09:00 +1°C° 0 mm 1 mps 766 mmHg 83%
    10:00 +1°C° 0 mm 1 mps 766 mmHg 81%
    11:00 +1°C° 0 mm 2 mps 765 mmHg 79%
    12:00 +1°C° 0 mm 2 mps 765 mmHg 76%
    13:00 +1°C° 0 mm 2 mps 765 mmHg 74%
    14:00 +1°C° 0 mm 2 mps 764 mmHg 71%
    15:00 +1°C° 0 mm 2 mps 764 mmHg 69%
    16:00 +1°C° 0 mm 2 mps 764 mmHg 70%
    17:00 -1°C° 0 mm 2 mps 764 mmHg 71%
    18:00 0°C° 0 mm 1 mps 765 mmHg 73%
    19:00 0°C° 0 mm 1 mps 765 mmHg 72%
    20:00 0°C° 0 mm 1 mps 765 mmHg 71%
    21:00 0°C° 0 mm 1 mps 765 mmHg 71%
    22:00 0°C° 0 mm 1 mps 764 mmHg 70%
    23:00 0°C° 0 mm 1 mps 764 mmHg 69%

    23 December, Saturday

    Time Temperature Precipitation Wind Pressure Humidity
    00:00 -2°C° 0 mm 2 mps 764 mmHg 69%
    01:00 -2°C° 0 mm 2 mps 764 mmHg 69%
    02:00 -2°C° 0 mm 2 mps 763 mmHg 70%
    03:00 -2°C° 0 mm 2 mps 763 mmHg 70%
    04:00 -2°C° 0 mm 2 mps 763 mmHg 70%
    05:00 -2°C° 0 mm 3 mps 762 mmHg 70%
    06:00 -2°C° 0 mm 3 mps 762 mmHg 70%
    07:00 -1°C° 0 mm 3 mps 762 mmHg 70%
    08:00 -1°C° 0 mm 3 mps 762 mmHg 69%
    09:00 -1°C° 0 mm 3 mps 762 mmHg 69%
    10:00 -1°C° 0 mm 4 mps 761 mmHg 66%
    11:00 -1°C° 0 mm 4 mps 761 mmHg 63%
    12:00 0°C° 0 mm 4 mps 761 mmHg 60%
    13:00 +1°C° 0 mm 3 mps 760 mmHg 61%
    14:00 +1°C° 0 mm 3 mps 759 mmHg 61%
    15:00 +2°C° 0 mm 2 mps 759 mmHg 61%
    16:00 +2°C° 0 mm 2 mps 759 mmHg 65%
    17:00 +1°C° 0 mm 2 mps 759 mmHg 69%
    18:00 -1°C° 0 mm 2 mps 758 mmHg 73%
    19:00 -1°C° 0 mm 3 mps 758 mmHg 74%
    20:00 -1°C° 0 mm 3 mps 758 mmHg 75%
    21:00 -1°C° 0 mm 3 mps 757 mmHg 76%
    22:00 -1°C° 0 mm 3 mps 757 mmHg 77%
    23:00 -2°C° 0 mm 4 mps 757 mmHg 79%
    Show more